Regional Weather Roundup
Issued by NWS

Home | Current Version | Previous Version | Graphics & Text | Print | Product List | Glossary Off
Versions: 1 2 3 4 5 6 7 8 9 10 11 12 13 14 15 16 17 18 19 20 21 22 23 24 25 26 27 28 29 30 31 32 33 34 35 36 37 38 39 40 41 42 43 44 45 46 47 48 49 50

000
ASUS43 KMKX 200000
RWRWI

WISCONSIN REGIONAL WEATHER ROUNDUP
NATIONAL WEATHER SERVICE MILWAUKEE/SULLIVAN WI
600 PM CST SUN FEB 19 2017

NOTE: "FAIR" INDICATES FEW OR NO CLOUDS BELOW 12,000 FEET WITH NO
SIGNIFICANT WEATHER AND/OR OBSTRUCTIONS TO VISIBILITY.

WIZ001-002-006>008-014>016-023>028-200100-
NORTHWEST WISCONSIN

CITY           SKY/WX    TMP DP  RH WIND       PRES   REMARKS
SUPERIOR ARPT  PTCLDY    35  33  90 NE12      29.97F WCI  27
ASHLAND        PTCLDY    33  31  92 N8        30.01S WCI  26
6HR MIN TEMP:  33; 6HR MAX TEMP:  46;

HAYWARD        CLOUDY    52  29  41 CALM      29.95S
6HR MIN TEMP:  52; 6HR MAX TEMP:  58;

SIREN          PTCLDY    52  32  45 SE5       29.92S
CUMBERLAND     PTCLDY    48  32  53 E7        29.94R
RICE LAKE      PTCLDY    50  32  48 CALM      29.95S
6HR MIN TEMP:  50; 6HR MAX TEMP:  55;

CHETEK         PTCLDY    50  32  50 SE3       29.95S
LADYSMITH      CLOUDY    48  31  51 SE6       29.99S
6HR MIN TEMP:  48; 6HR MAX TEMP:  57;

EAU CLAIRE     NOT AVBL
MENOMONIE      CLOUDY    48  35  59 SE3       29.94R
6HR MIN TEMP:  48; 6HR MAX TEMP:  58;

NEW RICHMOND   PTCLDY    49  36  61 SE3       29.91S
OSCEOLA        CLOUDY    50  37  61 SE9       29.93S
$$

WIZ003>005-009-010-017-018-200100-
NORTH CENTRAL WISCONSIN

CITY           SKY/WX    TMP DP  RH WIND       PRES   REMARKS
MANITOWISH WTR PTCLDY    44  27  52 E3        29.99F
ARBOR VITAE    PTCLDY    52  28  40 SE3       30.00S
WOODRUFF       PTCLDY    52  28  40 SE3       30.00S
RHINELANDER    PTCLDY    50  26  39 SE3       30.02S
6HR MIN TEMP:  49; 6HR MAX TEMP:  58;

EAGLE RIVER    CLOUDY    42  26  53 CALM      30.01S
LAND O LAKES   CLEAR     41  26  55 CALM      30.03S
6HR MIN TEMP:  41; 6HR MAX TEMP:  55;

PHILLIPS       CLOUDY    44  28  54 SE3       29.99S
6HR MIN TEMP:  44; 6HR MAX TEMP:  58;

TOMAHAWK       CLOUDY    47  27  45 CALM      30.01S
MEDFORD        PTCLDY    47  31  51 E6        29.99S
MERRILL        NOT AVBL
$$

WIZ029-030-035-036-043>047-200100-
CENTRAL WISCONSIN

CITY           SKY/WX    TMP DP  RH WIND       PRES   REMARKS
WAUSAU         CLEAR     51  29  42 E5        30.01R
6HR MIN TEMP:  51; 6HR MAX TEMP:  57;

MOSINEE        PTCLDY    52  30  43 SE5       30.02S
MARSHFIELD     PTCLDY    48  32  53 E7        29.99S
6HR MIN TEMP:  48; 6HR MAX TEMP:  55;

STEVENS POINT  CLEAR     48  32  52 E5        30.03R
WAUPACA        CLOUDY    48  35  61 CALM      30.04R
6HR MIN TEMP:  48; 6HR MAX TEMP:  61;

WAUTOMA        CLOUDY    49  35  58 E3        30.03R
6HR MIN TEMP:  49; 6HR MAX TEMP:  61;

WISC RAPIDS    CLOUDY    50  33  52 SE7       30.02R
6HR MIN TEMP:  50; 6HR MAX TEMP:  62;

CAMP DOUGLAS   NOT AVBL
$$

WIZ011>013-019>022-031-037>040-048>050-200100-
NORTHEAST WISCONSIN

CITY           SKY/WX    TMP DP  RH WIND       PRES   REMARKS
ANTIGO         CLOUDY    43  30  60 SE8       30.04R
SHAWANO        CLEAR     39  33  78 CALM      30.06R
6HR MIN TEMP:  39; 6HR MAX TEMP:  58;

OCONTO         CLOUDY    42  32  68 E6        30.07S
STURGEON BAY   PTCLDY    39  31  72 E7        30.10R WCI  34
6HR MIN TEMP:  39; 6HR MAX TEMP:  52;

GREEN BAY      CLEAR     45  36  70 E7        30.07R
6HR MIN TEMP:  45; 6HR MAX TEMP:  57;

MANITOWOC      NOT AVBL
APPLETON       PTCLDY    50  30  46 CALM      30.04R
CLINTONVILLE   CLEAR     46  32  57 E3        30.05R
OSHKOSH        PTCLDY    45  33  63 CALM      30.04S
6HR MIN TEMP:  44; 6HR MAX TEMP:  58;

$$

WIZ032>034-041-042-053>061-200100-
SOUTHWEST WISCONSIN

CITY           SKY/WX    TMP DP  RH WIND       PRES   REMARKS
LA CROSSE      CLOUDY    59  37  44 E7        29.95S
6HR MIN TEMP:  55; 6HR MAX TEMP:  65;

SPARTA         CLOUDY    51  36  55 E5        29.98S
6HR MIN TEMP:  51; 6HR MAX TEMP:  64;

VIROQUA        CLOUDY    53  38  58 CALM      29.97S
6HR MIN TEMP:  52; 6HR MAX TEMP:  60;

BOSCOBEL       PTCLDY    59  36  42 CALM      29.99R
6HR MIN TEMP:  59; 6HR MAX TEMP:  67;

PRAIRIE DU CHI PTCLDY    58  38  48 E7        29.96S
PLATTEVILLE    CLOUDY    55  40  58 E7        30.00S
$$

WIZ056-057-062-063-064-067-068-200100-
SOUTH CENTRAL WISCONSIN

CITY           SKY/WX    TMP DP  RH WIND       PRES   REMARKS
REEDSBURG      PTCLDY    55  37  49 CALM      30.00R
6HR MIN TEMP:  55; 6HR MAX TEMP:  63;

BARABOO/DELLS  PTCLDY    53  35  51 SE7       30.00S
LONE ROCK      NOT AVBL
MINERAL POINT  CLOUDY    55  37  50 SE9       30.00S
MADISON        MOCLDY    54  35  48 SE5       30.02S
6HR MIN TEMP:  52; 6HR MAX TEMP:  62;

MIDDLETON      PTCLDY    56  38  49 CALM      30.02S
6HR MIN TEMP:  56; 6HR MAX TEMP:  65;

WATERTOWN      CLEAR     49  31  48 SE3       30.03F
MONROE         CLOUDY    55  37  50 SE9       30.01S
JANESVILLE     CLEAR     54  37  54 SE6       30.03S
$$

WIZ051-052-058>065-066-070>072-200100-
SOUTHEAST WISCONSIN

CITY           SKY/WX    TMP DP  RH WIND       PRES   REMARKS
MILWAUKEE      CLOUDY    43  31  62 SE5       30.07S
6HR MIN TEMP:  43; 6HR MAX TEMP:  58;

WAUKESHA       NOT AVBL
MILWAUKEE/TIMM CLEAR     46  28  49 E5        30.08R
RACINE         CLEAR     43  31  62 SE6       30.09R
6HR MIN TEMP:  43; 6HR MAX TEMP:  58;

KENOSHA        CLEAR     45  31  58 SE6       30.07R
6HR MIN TEMP:  44; 6HR MAX TEMP:  61;

FOND DU LAC    CLOUDY    46  31  55 E5        30.05R
6HR MIN TEMP:  46; 6HR MAX TEMP:  61;

SHEBOYGAN      CLOUDY    41  30  65 E5        30.08R
6HR MIN TEMP:  41; 6HR MAX TEMP:  56;

WEST BEND      CLEAR     43  30  61 SE6       30.07R
JUNEAU         CLEAR     55  35  47 SE3       30.05S
$$

LSZ147-162-200100-
LAKE SUPERIOR

STATION/POSITION TIME  TEMP    WIND        PRES    WAVE
                       AIR SEA DIR/SP/G            HT/PER
                 (UTC) (F)     (DEG/KT/KT) (MB)    (FT/S)
DEVILS ISLAND    2300   36      80/ 14/ 15 1017.2R
PORT WING        2340   35      50/  6/ 10 1015.6R
SAXON HARBOR     2340   34        CALM     1015.6F
$$

LMZ867-665-643>646-200100-
LAKE MICHIGAN

STATION/POSITION TIME  TEMP    WIND        PRES    WAVE
                       AIR SEA DIR/SP/G            HT/PER
                 (UTC) (F)     (DEG/KT/KT) (MB)    (FT/S)
CHAMBERS ISLAND  2340   42     100/  5/  8 1019.0R
NORTHPORT PIER   2340   39      CALM  /  5 1019.6R
SISTER BAY       2250   44     140/  8/ 12   N/A
KEWAUNEE LAKESHO 2330   39      50/  2/  5 1018.5R
SHEBOYGAN LAKESH 2300   40     120/  1/  2 1018.7R
PORT WASHINGTON  2340   43     130/  1/  1 1019.3S
MILWAUKEE LAKESH 2330   41     170/  1/  2   N/A
KENOSHA   LAKESH 2300   46        CALM     1017.9
$$

TC  - TEMPERATURE IN CELSIUS
VSB - VISIBILITY IN STATUTE MILES
WCI - WIND CHILL INDEX
HX  - HEAT INDEX





USA.gov is the U.S. government's official web portal to all federal, state and local government web resources and services.